Regional Weather Roundup
Issued by NWS Goodland, KS

Home | Current Version | Previous Version | Graphics & Text | Print | Product List | Glossary On
Versions: 1 2 3 4 5 6 7 8 9 10 11 12 13 14 15 16 17 18 19 20 21 22 23 24 25 26 27 28 29 30 31 32 33 34 35 36 37 38 39 40 41 42 43 44 45 46 47 48 49 50
411
ASUS43 KGLD 122208
RWRGLD

GOODLAND FORECAST AREA HOURLY WEATHER ROUNDUP
NATIONAL WEATHER SERVICE GOODLAND KS
300 PM MST TUE DEC 12 2017

...OFFICIAL OBSERVATIONS...

CITY           SKY/WX    TMP DP  RH WIND       PRES   REMARKS
GOODLAND KS    SUNNY     64  17  16 NW12      30.12F
HILL CITY KS   SUNNY     61  18  18 W7        30.10F
IMPERIAL NEB   SUNNY     64  17  16 W7        30.07F
MCCOOK NEB     SUNNY     59  21  23 SW7       30.06F
AKRON CO       SUNNY     63  13  14 MISG      30.13F
BURLINGTON CO  SUNNY     66  16  14 NW12      30.14F
LIMON CO       SUNNY     65  15  14 N10       30.18F
$$

...UNOFFICIAL OBSERVATIONS...

CITY           SKY/WX    TMP DP  RH WIND       PRES   REMARKS
COLBY KS       SUNNY     61  27  27 W7        30.12F
LENORA KS        N/A     59  32  36 CALM        N/A
NORTON KS      SUNNY     57  10  15 SW8       30.07
SHARON SPRINGS   N/A     65  20  18 NW8         N/A
TRENTON NEB      N/A     62  32  32 NW5         N/A
KIT CARSON CO    N/A     66  21  18 MISG        N/A
YUMA CO        FAIR      63  16  16 NW8       30.12F
$$




USA.gov is the U.S. government's official web portal to all federal, state and local government web resources and services.